Dewpoint
53 53 54 54 54 55 55 56 55 55 56 56 56 56 57 57 57 57 57 57 57 58 58 58 59 59 60 60 60 60 58 45 42 40 32 33 61 66 67 65 65 61 57 33 30 27 26 29 28 31 35 34 34 35 38 38 35 32 24 22 17 14 22 25 24 23 26 24 22 23 22 23 23 23 26 24 23 22 23 23 23 22 25 23 24 29 30 33
53 53 54 53 54 54 55 55 55 55 56 56 57 57 56 57 57 57 57 57 58 58 58 59 59 59 60 60 60 59 54 44 39 35 35 45 64 67 66 66 64 60 47 31 29 28 26 27 29 29 31 28 37 33 36 35 35 27 26 22 16 21 23 26 25 25 22 23 23 23 24 23 24 24 24 21 21 22 22 23 22 20 21 23 27 32 32 33
53 54 53 54 54 54 55 55 55 55 55 56 56 56 56 57 57 57 57 58 58 58 58 58 59 59 60 60 60 59 48 37 32 29 34 58 66 67 65 63 62 59 36 32 32 28 27 28 30 28 28 25 27 32 34 33 36 32 25 21 24 24 23 27 26 25 23 24 23 24 26 24 25 24 25 26 22 23 23 21 21 20 21 23 26 32 33 33
53 52 54 54 54 54 55 55 55 56 55 56 56 56 57 57 57 57 58 58 58 58 58 58 59 59 59 60 60 55 41 33 28 28 32 62 67 66 63 60 58 45 34 33 31 30 29 29 28 28 30 24 27 33 25 28 27 30 25 22 24 26 23 22 28 26 24 24 25 25 25 24 25 24 26 23 22 22 22 23 22 21 21 25 30 32 32 32
55 54 53 54 54 53 55 55 56 56 56 56 56 57 57 57 57 58 58 58 58 58 58 58 59 59 59 60 59 45 36 23 25 30 36 64 67 64 61 60 54 36 33 31 29 29 28 28 28 30 27 26 27 23 22 32 32 31 30 27 26 28 26 24 28 30 27 26 24 26 25 26 26 26 24 24 22 21 23 24 22 24 29 31 31 32 32 32
53 53 53 54 54 53 54 55 55 56 56 56 57 57 57 57 57 58 58 58 58 58 58 58 59 59 59 59 46 40 35 22 27 37 60 64 65 63 62 58 51 34 32 31 30 30 29 27 26 28 24 19 22 18 19 33 33 26 26 28 28 28 26 28 26 26 24 25 24 26 26 23 24 23 24 23 22 23 25 27 28 28 31 31 31 32 31 32
54 54 53 53 54 53 53 54 55 56 56 56 57 57 58 58 58 58 58 58 58 58 58 58 58 58 59 55 43 37 36 36 37 40 62 63 63 63 58 56 50 35 33 32 30 31 30 26 26 28 22 22 19 21 23 24 29 25 21 28 28 29 26 27 28 27 25 26 24 25 23 24 22 21 23 23 24 25 30 30 30 30 31 31 31 31 31 32
53 54 53 53 53 53 53 55 55 55 56 57 57 57 58 58 58 58 58 58 58 58 58 58 58 59 57 41 39 37 37 37 39 47 60 59 50 54 50 41 38 38 32 32 29 28 28 26 23 27 22 19 20 22 25 25 25 29 25 28 29 29 28 28 27 25 25 25 25 25 23 21 21 21 22 22 21 25 29 30 30 30 30 31 31 31 31 31
54 54 53 53 53 53 53 55 55 55 56 57 57 58 58 58 58 58 58 58 58 57 57 58 58 59 56 41 37 32 31 41 41 48 55 48 45 42 41 36 34 32 33 33 33 30 30 28 26 23 19 22 23 22 24 22 21 29 24 28 26 24 23 22 22 22 22 22 22 22 21 21 21 23 22 21 21 24 30 30 30 30 30 30 30 31 31 31
55 54 53 53 53 53 53 55 55 56 56 57 57 58 58 58 58 58 58 58 57 57 57 57 59 57 43 37 34 31 35 44 56 57 53 46 41 40 40 39 34 33 30 32 29 28 29 27 28 27 25 24 25 23 27 23 22 27 27 27 24 22 21 24 21 22 22 22 22 20 21 22 22 22 18 21 21 26 29 29 29 29 29 30 30 30 30 30
56 54 53 53 54 53 54 54 55 56 56 57 57 58 58 58 58 58 58 57 57 57 57 57 57 49 38 34 30 29 44 49 53 56 51 41 41 38 41 40 36 35 32 36 31 28 29 28 33 29 31 22 25 24 24 24 24 23 23 22 22 21 22 22 22 21 22 21 22 21 20 23 21 24 18 19 22 26 29 29 29 29 29 29 29 29 30 30
56 54 53 54 54 54 54 55 55 56 57 57 58 58 58 58 58 58 58 57 57 57 57 58 55 46 36 33 29 30 44 45 52 49 48 45 44 45 44 42 38 39 34 32 36 40 34 30 31 25 21 28 23 24 23 24 24 24 22 21 21 21 20 21 22 21 23 21 21 21 21 21 22 19 23 21 27 29 29 28 29 28 28 29 29 29 28 29
56 54 54 54 54 54 54 55 56 56 57 58 57 58 58 58 58 58 58 57 57 57 58 58 53 46 37 33 32 37 41 45 50 46 46 46 45 44 43 43 41 37 35 34 36 40 38 32 29 27 30 25 24 24 26 25 24 22 21 20 20 21 21 22 23 21 23 22 21 22 23 22 21 20 20 21 27 28 27 28 28 28 28 28 29 28 28 28
57 56 54 54 54 54 55 55 56 56 58 58 58 58 58 58 58 58 57 57 57 57 58 56 50 40 33 32 35 36 44 51 48 45 46 46 40 43 41 39 36 34 41 37 39 40 35 35 32 29 29 26 25 32 24 24 24 23 21 23 22 21 22 23 24 24 23 23 20 23 24 21 21 20 22 24 21 26 28 28 28 28 27 27 28 28 28 28
57 56 56 54 54 54 55 56 57 58 59 58 57 57 58 58 57 57 57 57 57 57 58 55 43 37 36 35 37 42 54 50 48 47 47 43 41 40 38 36 34 33 33 35 36 38 36 34 31 29 27 28 26 25 23 22 24 25 21 24 26 21 23 25 29 24 23 19 20 22 25 21 20 20 21 22 26 28 28 28 27 27 27 27 27 27 27 27
57 57 56 55 54 55 56 57 58 59 59 57 57 58 58 57 57 57 57 57 57 57 49 46 46 37 34 34 38 51 42 40 45 45 42 45 42 40 42 36 37 32 31 30 32 30 31 31 29 29 25 25 24 24 23 25 27 24 23 26 24 24 22 22 24 25 26 20 20 21 21 18 19 20 20 25 27 28 28 28 27 27 27 27 26 26 26 27
57 57 56 55 56 56 57 58 58 58 58 58 58 58 58 58 58 58 58 56 52 52 48 41 47 39 34 38 38 36 36 40 42 41 40 41 42 40 37 35 32 30 30 31 33 33 30 28 29 28 26 24 23 25 24 25 23 23 24 22 25 21 22 22 24 25 27 20 18 21 19 17 19 19 21 27 28 28 27 27 27 27 26 26 26 26 26 26
57 57 56 56 55 56 57 58 58 59 59 59 59 57 57 57 57 57 54 53 50 47 47 47 44 36 33 38 35 35 41 40 41 40 39 38 39 34 31 31 30 30 30 31 30 30 32 27 30 28 26 24 21 26 26 23 25 24 23 23 21 22 22 22 23 25 24 25 24 23 19 18 19 19 23 28 28 28 27 27 26 26 26 26 26 26 25 26
58 57 56 56 55 56 57 58 58 59 59 59 58 57 57 54 47 48 47 44 41 39 35 35 36 32 30 33 37 41 42 42 41 41 39 36 36 33 33 32 33 32 30 30 30 27 29 29 30 26 25 23 21 23 25 26 25 24 23 23 24 23 22 22 23 24 24 23 23 24 24 24 24 24 23 27 28 27 27 27 26 26 26 26 26 26 26 26
58 57 56 56 56 57 58 58 58 59 59 58 55 52 45 43 42 41 43 43 41 38 37 37 38 37 37 35 37 41 41 40 38 39 40 40 34 31 29 29 32 30 29 30 29 28 30 27 25 25 26 24 23 23 25 26 24 25 27 25 24 24 24 26 25 26 25 24 24 24 24 24 24 24 24 29 28 27 27 26 27 27 26 26 26 26 26 26
58 58 57 57 57 57 58 58 59 59 59 57 55 46 42 42 36 35 38 42 44 42 40 40 39 38 36 37 38 38 36 36 38 38 39 40 32 31 31 28 27 28 26 30 29 26 28 26 26 27 26 24 24 23 22 23 24 24 25 25 24 26 22 24 24 25 25 25 24 21 23 23 23 23 27 30 28 27 27 26 26 25 26 26 26 26 26 26
58 58 57 57 57 57 58 59 59 59 59 57 53 46 44 43 42 42 40 37 40 43 43 42 41 40 40 38 39 38 37 34 35 38 39 37 31 31 31 27 26 28 28 27 26 25 25 25 26 26 25 24 23 22 21 21 23 24 22 24 23 22 25 25 25 26 25 25 23 23 23 24 24 23 29 28 28 28 28 27 26 25 26 26 27 26 26 26
58 58 57 57 57 58 58 58 59 59 57 55 52 48 46 47 44 43 42 38 40 42 42 41 41 41 41 42 41 37 35 34 33 36 37 37 30 30 28 26 26 27 28 25 26 25 24 25 25 25 25 24 24 22 21 23 24 22 23 22 21 25 24 24 27 26 25 24 23 24 23 24 25 27 27 27 28 28 28 28 28 27 26 26 26 26 26 26
58 58 58 57 57 59 59 58 59 58 56 55 52 49 47 44 43 42 42 39 39 42 42 42 42 41 41 40 41 36 35 35 36 35 39 32 30 32 28 26 26 26 25 25 25 25 25 26 27 25 25 24 24 23 22 21 20 25 24 23 22 24 24 24 25 26 26 26 25 23 24 24 24 24 25 26 27 26 26 26 26 27 29 29 28 28 28 25
58 58 58 57 57 58 59 59 56 55 55 55 54 56 54 45 42 42 40 38 34 37 42 40 42 42 42 40 39 36 36 37 37 37 39 33 29 28 27 27 26 25 25 25 25 25 24 25 28 24 25 24 25 23 24 25 22 26 27 23 21 22 23 25 26 25 25 26 26 23 24 22 24 25 25 26 26 25 27 25 25 26 26 26 25 25 26 27
58 58 57 57 58 58 59 55 54 55 55 53 53 52 54 49 44 42 38 32 33 34 38 37 44 40 43 39 39 38 39 36 37 39 38 35 40 30 28 27 27 26 25 25 24 26 24 28 28 27 26 26 26 25 27 26 25 25 26 27 23 24 26 26 26 27 23 22 25 24 22 19 23 23 25 26 26 26 26 26 25 26 26 26 26 26 26 25
58 58 57 57 58 59 55 51 55 55 52 51 53 50 48 47 44 42 35 31 30 36 36 40 40 39 39 37 38 39 33 36 37 38 37 39 34 35 29 27 29 29 28 27 29 27 30 29 29 29 27 27 26 24 27 26 26 25 28 28 27 26 26 27 26 27 25 27 27 24 23 20 20 23 25 25 25 25 25 25 26 25 25 25 25 26 26 26
58 58 57 57 58 58 56 54 54 53 52 51 47 49 46 45 44 42 36 28 26 36 35 36 38 40 38 33 38 38 37 35 34 36 35 37 35 32 31 29 28 29 28 31 27 30 30 29 28 28 28 27 27 28 29 28 27 27 29 28 27 26 27 27 27 26 25 23 24 24 26 21 20 23 25 25 24 24 25 24 25 25 25 25 26 26 27 26
58 58 57 57 57 58 57 55 55 53 52 47 46 47 46 46 44 40 35 28 33 32 38 36 41 36 35 37 35 32 31 30 34 35 35 34 35 32 31 31 30 29 29 31 30 30 27 29 30 29 29 27 29 29 29 29 27 28 28 27 26 26 26 27 25 24 22 20 20 22 24 20 22 25 23 24 24 23 24 25 24 24 25 25 25 26 26 26
58 58 57 57 57 57 57 55 53 53 48 47 47 47 46 44 40 35 31 27 35 32 36 35 33 33 35 36 36 31 30 29 31 32 32 32 32 33 30 32 29 29 29 28 28 30 28 33 33 30 29 29 29 28 29 28 28 29 27 26 26 25 24 23 22 20 18 15 21 23 23 22 19 24 23 23 25 23 25 25 25 25 25 25 25 25 26 24
58 57 57 57 55 56 56 53 56 50 48 49 48 47 46 46 38 34 29 33 37 32 34 33 31 35 36 36 35 34 28 28 32 32 31 31 29 29 29 31 30 29 27 27 27 28 28 27 27 28 31 28 28 27 28 28 28 27 25 24 26 25 19 18 13 19 16 17 17 20 22 22 20 20 23 24 24 24 25 25 24 24 24 25 25 25 25 24
57 57 57 56 56 57 54 52 55 50 49 49 48 46 44 37 39 32 31 37 31 33 32 31 28 32 35 31 31 29 31 30 31 32 30 30 29 29 29 32 30 25 27 28 29 26 27 28 29 28 33 29 28 28 26 28 27 27 26 26 24 16 15 15 14 15 17 18 19 22 22 21 21 23 21 21 24 25 26 26 25 24 24 24 25 25 25 25
56 57 56 56 56 56 56 55 52 49 49 50 49 48 42 36 30 37 37 35 32 32 31 31 29 31 33 32 30 29 30 30 30 32 30 29 29 29 29 30 30 31 28 26 29 26 28 28 27 28 28 30 30 27 25 26 25 25 25 25 22 16 14 6 10 7 14 16 18 20 21 20 22 21 24 23 23 27 27 27 27 25 24 24 24 25 24 25
57 57 56 56 57 56 57 54 52 50 49 51 48 45 39 33 32 39 37 36 34 31 30 28 30 30 33 32 31 30 30 30 31 31 31 29 29 28 29 29 29 28 27 25 28 28 22 24 28 28 28 30 29 29 28 28 25 25 27 26 26 19 10 12 9 15 16 16 15 17 16 16 19 21 26 26 26 26 26 27 28 27 25 25 25 25 25 24
57 57 57 56 56 57 55 54 51 50 52 51 46 42 34 33 35 36 36 37 34 31 28 29 31 30 30 30 27 28 33 29 30 30 30 30 29 29 29 30 29 28 28 28 28 24 27 27 27 29 28 29 29 29 28 27 26 25 26 27 23 24 22 16 13 11 8 14 13 14 16 19 20 23 27 26 25 25 26 26 28 28 25 25 25 25 24 23
56 56 57 55 55 56 56 53 51 52 52 48 43 37 35 36 33 36 36 38 34 30 28 29 29 29 27 28 27 29 29 28 29 30 28 29 29 30 29 29 30 29 29 30 26 24 23 24 27 28 28 28 29 27 27 29 26 25 26 23 26 26 21 17 15 13 12 13 19 11 19 23 23 22 25 25 25 25 25 26 27 27 25 25 24 24 23 23
54 55 52 54 55 57 56 54 53 54 52 47 42 35 39 38 39 38 41 37 35 29 29 30 28 28 27 28 28 28 28 29 28 28 27 28 29 30 28 30 31 30 30 31 27 27 25 24 27 27 27 27 28 28 28 28 29 26 23 26 27 27 26 22 18 11 5 14 16 17 18 19 19 19 24 24 25 25 25 25 26 26 25 24 24 24 23 23
54 53 53 53 55 57 56 54 54 53 50 45 39 39 41 39 41 39 36 32 30 31 30 32 31 31 28 28 27 27 28 29 28 27 27 28 27 31 30 29 31 30 30 30 28 29 28 23 25 28 27 28 28 28 27 28 29 26 26 29 26 19 19 23 18 16 13 11 13 14 19 18 19 20 22 22 24 24 25 25 25 25 25 24 24 23 23 23
54 52 48 52 56 57 56 54 53 51 47 42 40 39 41 40 39 37 36 36 35 32 32 33 33 30 30 28 27 27 29 28 28 27 25 26 26 29 29 30 29 31 30 29 28 28 27 23 23 28 27 28 27 28 25 25 27 29 28 26 27 23 20 18 21 17 18 12 9 16 16 18 21 20 22 21 23 24 25 24 25 25 25 24 23 23 23 23
51 48 47 53 56 56 55 54 51 48 44 39 41 41 42 40 40 41 39 37 35 34 34 33 32 31 29 29 29 28 30 30 27 28 28 27 27 29 28 30 28 30 30 29 30 31 25 26 20 26 28 27 24 26 26 25 25 24 24 24 24 22 25 24 21 20 18 10 11 14 17 17 22 23 22 21 22 24 25 25 25 25 25 25 24 23 23 23
52 48 47 55 56 56 55 51 46 43 42 44 44 42 42 40 40 40 40 41 40 42 36 35 35 33 32 31 30 32 30 31 30 28 29 28 27 25 29 29 30 29 30 30 29 29 25 25 23 25 24 24 26 28 27 27 27 25 25 24 24 24 22 20 21 23 17 17 17 13 18 17 25 24 23 23 24 25 26 26 25 25 25 25 24 23 23 23
49 42 45 54 56 55 50 43 43 46 43 42 41 43 41 45 42 41 41 42 42 40 42 40 38 36 34 33 33 33 32 32 31 30 30 28 29 29 32 31 29 31 29 29 28 31 29 28 25 22 25 25 27 29 30 29 29 28 27 25 27 25 24 21 20 21 19 21 21 19 17 22 26 26 26 26 26 26 26 26 25 26 25 25 24 23 23 23
47 45 48 54 55 53 48 42 44 43 42 44 44 43 44 42 42 41 41 41 40 42 40 39 39 37 38 35 36 35 33 32 31 29 31 31 30 30 35 31 31 31 33 30 31 31 34 27 23 26 27 28 29 30 30 30 29 27 27 27 26 24 25 24 23 24 23 20 20 19 20 24 25 27 25 26 25 26 26 26 25 25 25 25 24 24 23 23
48 45 46 51 55 53 46 38 38 41 42 42 43 43 43 43 42 40 41 42 41 41 41 39 40 41 38 39 37 34 35 31 34 31 31 33 29 36 36 32 31 33 31 30 30 35 27 30 28 21 21 23 26 28 29 29 28 27 26 27 27 27 28 29 28 26 22 24 24 22 20 23 29 29 27 24 25 25 25 26 26 25 25 25 24 24 24 23
44 44 45 48 51 52 43 44 42 41 41 41 41 41 41 41 42 43 42 41 42 42 40 39 41 41 39 39 38 38 38 34 33 35 34 34 32 37 36 35 33 34 35 36 38 37 30 30 27 24 22 21 21 22 24 26 28 29 29 28 28 27 27 25 23 23 23 26 26 23 22 27 29 28 24 25 25 25 25 25 23 26 26 25 25 25 24 23
43 37 42 43 47 46 47 44 44 42 40 40 39 40 41 40 41 42 43 42 43 42 42 41 40 41 38 38 37 37 37 37 36 34 34 34 34 36 35 35 36 37 37 39 37 34 30 30 30 28 26 24 24 23 26 30 27 26 26 27 27 27 27 26 26 25 23 26 25 26 26 27 27 23 24 24 24 25 25 25 25 25 25 26 26 26 26 25
42 39 38 36 43 43 42 44 43 43 40 42 37 39 38 39 40 41 43 40 43 42 40 41 40 39 38 38 37 37 38 37 36 35 35 34 34 34 35 35 35 37 38 37 37 34 32 30 31 29 29 28 26 26 27 30 27 27 26 26 27 27 26 26 25 24 28 27 25 28 28 27 29 27 26 27 26 26 25 25 25 25 26 26 26 26 29 25
39 39 42 42 38 35 38 40 43 42 42 42 39 40 38 38 39 38 41 42 42 43 40 39 40 41 40 39 38 35 36 36 36 35 34 34 35 35 34 35 34 35 36 35 36 34 33 30 31 31 30 30 29 29 28 29 29 30 29 28 27 27 26 26 26 27 28 26 24 28 29 29 31 32 29 26 25 25 25 25 25 25 25 25 25 25 26 25
40 37 39 41 38 38 39 40 42 42 41 41 40 40 38 39 38 39 39 39 40 40 42 37 39 40 40 41 39 36 36 34 34 36 34 34 34 34 34 34 35 34 34 34 34 33 34 32 31 31 30 30 32 33 31 32 32 32 32 31 32 31 28 28 28 29 29 28 30 31 30 30 32 32 28 26 28 27 27 26 24 25 24 25 25 24 24 25
36 37 35 38 38 36 37 39 41 41 39 41 38 39 39 38 38 40 39 40 36 39 42 39 39 40 40 39 40 37 37 37 35 34 35 35 34 34 34 35 33 33 33 34 35 35 35 32 34 32 32 32 32 31 31 32 32 31 32 32 33 33 32 32 31 31 31 30 31 30 28 28 28 29 29 26 27 25 24 24 24 24 24 25 24 24 24 24
38 38 39 38 34 34 35 36 38 39 36 38 37 37 39 39 38 40 39 41 39 38 40 39 40 39 39 39 39 39 39 38 35 36 37 37 35 36 36 34 35 33 33 33 33 33 34 33 31 32 31 30 26 29 29 29 29 30 31 32 29 29 29 29 29 29 28 28 28 27 26 26 27 26 26 23 23 23 24 24 23 22 22 23 23 23 23 23
39 38 39 39 32 36 33 33 35 36 32 36 37 37 37 37 39 41 38 38 39 39 40 41 41 40 37 38 38 39 40 38 38 37 38 37 37 35 37 36 37 35 33 33 33 33 33 31 30 29 28 28 21 25 26 26 27 27 28 29 29 30 30 28 27 27 29 29 28 26 27 29 26 25 24 23 21 22 22 22 22 22 22 23 22 22 23 23